H1 CPF 2 NER 2024 10 24 9 298 01 glonass147 H2 2311401 9147 57517 2024 10 24 0 0 0 2024 10 27 23 45 0 900 1 1 0 0 0 1 H9 10 0 60607 0.00000 0 5925838.085 -10662175.956 -22389201.556 10 0 60607 900.00000 0 7378879.631 -8265116.876 -22961629.492 10 0 60607 1800.00000 0 9029883.826 -5946668.399 -23087469.508 10 0 60607 2700.00000 0 10839591.552 -3765431.461 -22764210.414 10 0 60607 3600.00000 0 12759143.472 -1772147.056 -21998085.699 10 0 60607 4500.00000 0 14731981.956 -7785.834 -20803956.319 10 0 60607 5400.00000 0 16696094.563 1497941.951 -19205024.460 10 0 60607 6300.00000 0 18586505.582 2727594.421 -17232383.461 10 0 60607 7200.00000 0 20337911.395 3676482.540 -14924412.392 10 0 60607 8100.00000 0 21887349.075 4352611.730 -12326026.895 10 0 60607 9000.00000 0 23176785.964 4776084.275 -9487800.885 10 0 60607 9900.00000 0 24155521.053 4977989.015 -6464976.457 10 0 60607 10800.00000 0 24782296.836 4998826.629 -3316381.744 10 0 60607 11700.00000 0 25027032.435 4886538.580 -103278.464 10 0 60607 12600.00000 0 24872104.897 4694224.591 3111837.567 10 0 60607 13500.00000 0 24313124.720 4477646.739 6266458.712 10 0 60607 14400.00000 0 23359173.219 4292627.133 9299285.956 10 0 60607 15300.00000 0 22032492.177 4192450.457 12151423.037 10 0 60607 16200.00000 0 20367639.417 4225382.112 14767520.587 10 0 60607 17100.00000 0 18410146.358 4432407.454 17096847.927 10 0 60607 18000.00000 0 16214734.446 4845287.869 19094271.860 10 0 60607 18900.00000 0 13843165.531 5485015.762 20721124.062 10 0 60607 19800.00000 0 11361816.133 6360733.418 21945941.087 10 0 60607 20700.00000 0 8839076.680 7469161.093 22745063.668 10 0 60607 21600.00000 0 6342683.448 8794558.299 23103084.867 10 0 60607 22500.00000 0 3937093.297 10309220.011 23013139.483 10 0 60607 23400.00000 0 1681009.099 11974487.399 22477030.023 10 0 60607 24300.00000 0 -374842.835 13742231.383 21505187.467 10 0 60607 25200.00000 0 -2189592.618 15556747.904 20116467.889 10 0 60607 26100.00000 0 -3733687.436 17356986.745 18337788.843 10 0 60607 27000.00000 0 -4989873.816 19079021.945 16203612.182 10 0 60607 27900.00000 0 -5953661.983 20658661.722 13755282.650 10 0 60607 28800.00000 0 -6633254.128 22034089.797 11040234.265 10 0 60607 29700.00000 0 -7048940.505 23148428.390 8111078.954 10 0 60607 30600.00000 0 -7231989.350 23952116.096 5024594.208 10 0 60607 31500.00000 0 -7223077.677 24405001.103 1840628.688 10 0 60607 32400.00000 0 -7070329.271 24478061.759 -1379053.568 10 0 60607 33300.00000 0 -6827042.743 24154681.768 -4571968.264 10 0 60607 34200.00000 0 -6549205.719 23431425.620 -7676122.149 10 0 60607 35100.00000 0 -6292900.383 22318280.739 -10631216.934 10 0 60607 36000.00000 0 -6111710.423 20838354.997 -13379822.220 10 0 60607 36900.00000 0 -6054239.470 19027041.154 -15868494.291 10 0 60607 37800.00000 0 -6161846.672 16930682.121 -18048818.724 10 0 60607 38700.00000 0 -6466695.937 14604791.922 -19878356.219 10 0 60607 39600.00000 0 -6990202.264 12111905.917 -21321472.924 10 0 60607 40500.00000 0 -7741941.936 9519149.427 -22350038.883 10 0 60607 41400.00000 0 -8719073.792 6895625.680 -22943980.793 10 0 60607 42300.00000 0 -9906297.301 4309731.664 -23091678.066 10 0 60607 43200.00000 0 -11276350.528 1826513.426 -22790194.271 10 0 60607 44100.00000 0 -12791028.308 -494829.236 -22045339.147 10 0 60607 45000.00000 0 -14402678.891 -2603184.958 -20871559.644 10 0 60607 45900.00000 0 -16056117.073 -4457426.738 -19291661.772 10 0 60607 46800.00000 0 -17690874.001 -6027882.977 -17336368.273 10 0 60607 47700.00000 0 -19243689.451 -7297322.778 -15043720.475 10 0 60607 48600.00000 0 -20651141.796 -8261415.165 -12458335.777 10 0 60607 49500.00000 0 -21852304.847 -8928644.051 -9630535.214 10 0 60607 50400.00000 0 -22791319.336 -9319683.807 -6615358.347 10 0 60607 51300.00000 0 -23419770.227 -9466263.229 -3471485.101 10 0 60607 52200.00000 0 -23698769.230 -9409567.384 -260086.186 10 0 60607 53100.00000 0 -23600654.275 -9198246.463 2956374.649 10 0 60607 54000.00000 0 -23110234.089 -8886117.413 6115362.333 10 0 60607 54900.00000 0 -22225525.343 -8529657.031 9155491.552 10 0 60607 55800.00000 0 -20957951.471 -8185393.832 12017722.667 10 0 60607 56700.00000 0 -19331995.069 -7907309.976 14646508.765 10 0 60607 57600.00000 0 -17384318.857 -7744363.745 16990871.412 10 0 60607 58500.00000 0 -15162392.472 -7738237.505 19005384.370 10 0 60607 59400.00000 0 -12722682.853 -7921406.200 20651046.764 10 0 60607 60300.00000 0 -10128483.917 -8315607.548 21896029.597 10 0 60607 61200.00000 0 -7447475.875 -8930777.973 22716282.176 10 0 60607 62100.00000 0 -4749115.314 -9764498.644 23095987.839 10 0 60607 63000.00000 0 -2101963.677 -10801974.654 23027861.264 10 0 60607 63900.00000 0 428936.014 -12016548.136 22513282.506 10 0 60607 64800.00000 0 2784526.736 -13370724.089 21562265.847 10 0 60607 65700.00000 0 4913948.511 -14817666.456 20193264.382 10 0 60607 66600.00000 0 6776402.728 -16303102.582 18432814.098 10 0 60607 67500.00000 0 8342593.907 -17767557.286 16315023.975 10 0 60607 68400.00000 0 9595690.362 -19148824.038 13880921.336 10 0 60607 69300.00000 0 10531765.017 -20384570.670 11177664.331 10 0 60607 70200.00000 0 11159698.984 -21414971.268 8257635.902 10 0 60607 71100.00000 0 11500552.763 -22185254.379 5177435.918 10 0 60607 72000.00000 0 11586431.951 -22648060.834 1996790.286 10 0 60607 72900.00000 0 11458895.517 -22765512.005 -1222602.364 10 0 60607 73800.00000 0 11166973.845 -22510901.123 -4418264.430 10 0 60607 74700.00000 0 10764880.269 -21869935.687 -7528150.404 10 0 60607 75600.00000 0 10309512.854 -20841477.713 -10491851.727 10 0 60607 76500.00000 0 9857852.136 -19437749.368 -13251771.781 10 0 60607 77400.00000 0 9464365.126 -17683994.015 -15754247.871 10 0 60607 78300.00000 0 9178525.717 -15617605.464 -17950598.046 10 0 60607 79200.00000 0 9042556.860 -13286760.576 -19798072.102 10 0 60607 80100.00000 0 9089490.591 -10748611.247 -21260687.933 10 0 60607 81000.00000 0 9341628.638 -8067110.300 -22309936.744 10 0 60607 81900.00000 0 9809469.517 -5310561.151 -22925343.168 10 0 60607 82800.00000 0 10491148.314 -2548992.801 -23094869.162 10 0 60607 83700.00000 0 11372413.827 148531.011 -22815153.591 10 0 60607 84600.00000 0 12427144.992 2716556.841 -22091582.535 10 0 60607 85500.00000 0 13618385.761 5095730.876 -20938188.609 10 0 60608 0.00000 0 14899855.490 7235029.057 -19377381.073 10 0 60608 900.00000 0 16217872.497 9093636.473 -17439510.680 10 0 60608 1800.00000 0 17513608.347 10642395.300 -15162279.637 10 0 60608 2700.00000 0 18725580.222 11864765.218 -12590005.217 10 0 60608 3600.00000 0 19792274.439 12757254.140 -9772753.324 10 0 60608 4500.00000 0 20654790.711 13329303.467 -6765358.384 10 0 60608 5400.00000 0 21259394.970 13602633.878 -3626349.207 10 0 60608 6300.00000 0 21559872.376 13610080.717 -416802.367 10 0 60608 7200.00000 0 21519580.607 13393969.736 2800853.708 10 0 60608 8100.00000 0 21113116.315 13004103.417 5964059.789 10 0 60608 9000.00000 0 20327524.084 12495444.502 9011347.452 10 0 60608 9900.00000 0 19162996.803 11925596.037 11883536.702 10 0 60608 10800.00000 0 17633037.957 11352185.549 14524885.865 10 0 60608 11700.00000 0 15764079.141 10830264.614 16884171.260 10 0 60608 12600.00000 0 13594569.021 10409834.021 18915675.813 10 0 60608 13500.00000 0 11173572.021 10133598.950 20580067.991 10 0 60608 14400.00000 0 8558935.314 10035048.443 21845154.808 10 0 60608 15300.00000 0 5815100.344 10136939.516 22686495.358 10 0 60608 16200.00000 0 3010649.541 10450248.987 23087864.100 10 0 60608 17100.00000 0 215689.385 10973636.460 23041556.031 10 0 60608 18000.00000 0 -2500822.558 11693440.523 22548528.762 10 0 60608 18900.00000 0 -5073697.074 12584208.085 21618379.441 10 0 60608 19800.00000 0 -7443972.074 13609734.739 20269157.289 10 0 60608 20700.00000 0 -9561110.252 14724572.882 18527015.396 10 0 60608 21600.00000 0 -11384845.948 15875944.991 16425708.152 10 0 60608 22500.00000 0 -12886605.957 17005982.627 14005943.419 10 0 60608 23400.00000 0 -14050446.364 18054198.046 11314601.193 10 0 60608 24300.00000 0 -14873467.435 18960085.454 8403832.985 10 0 60608 25200.00000 0 -15365690.031 19665743.210 5330058.483 10 0 60608 26100.00000 0 -15549399.303 20118407.078 2152878.228 10 0 60608 27000.00000 0 -15457983.603 20272787.914 -1066077.209 10 0 60608 27900.00000 0 -15134317.628 20093115.060 -4264339.569 10 0 60608 28800.00000 0 -14628758.019 19554798.632 -7379813.736 10 0 60608 29700.00000 0 -13996836.012 18645639.720 -10351983.469 10 0 60608 30600.00000 0 -13296744.580 17366536.202 -13123088.432 10 0 60608 31500.00000 0 -12586726.352 15731653.037 -15639249.303 10 0 60608 32400.00000 0 -11922472.838 13768048.266 -17851518.766 10 0 60608 33300.00000 0 -11354645.118 11514768.803 -19716837.645 10 0 60608 34200.00000 0 -10926621.109 9021452.379 -21198877.265 10 0 60608 35100.00000 0 -10672565.006 6346492.755 -22268751.399 10 0 60608 36000.00000 0 -10615900.905 3554843.589 -22905583.734 10 0 60608 36900.00000 0 -10768255.651 715551.659 -23096919.584 10 0 60608 37800.00000 0 -11128916.129 -2100878.545 -22838973.580 10 0 60608 38700.00000 0 -11684824.510 -4825179.700 -22136708.236 10 0 60608 39600.00000 0 -12411112.294 -7391964.161 -21003741.540 10 0 60608 40500.00000 0 -13272151.097 -9742204.428 -19462084.988 10 0 60608 41400.00000 0 -14223076.306 -11825448.516 -17541716.809 10 0 60608 42300.00000 0 -15211719.458 -13601678.159 -15279998.400 10 0 60608 43200.00000 0 -16180867.828 -15042732.751 -12720945.149 10 0 60608 44100.00000 0 -17070755.543 -16133240.123 -9914365.820 10 0 60608 45000.00000 0 -17821680.587 -16871016.021 -6914887.507 10 0 60608 45900.00000 0 -18376636.470 -17266916.682 -3780885.561 10 0 60608 46800.00000 0 -18683846.662 -17344152.034 -573339.959 10 0 60608 47700.00000 0 -18699093.919 -17137089.964 2645358.759 10 0 60608 48600.00000 0 -18387745.429 -16689603.682 5812629.865 10 0 60608 49500.00000 0 -17726387.679 -16053033.489 8866924.557 10 0 60608 50400.00000 0 -16704001.705 -15283850.489 11748925.251 10 0 60608 51300.00000 0 -15322628.917 -14441122.096 14402698.260 10 0 60608 52200.00000 0 -13597499.440 -13583887.219 16776777.310 10 0 60608 53100.00000 0 -11556617.514 -12768552.374 18825156.963 10 0 60608 54000.00000 0 -9239821.337 -12046418.562 20508177.238 10 0 60608 54900.00000 0 -6697356.531 -11461442.779 21793283.056 10 0 60608 55800.00000 0 -3988022.521 -11048327.695 22655644.823 10 0 60608 56700.00000 0 -1176968.523 -10831018.990 23078629.256 10 0 60608 57600.00000 0 1666769.980 -10821672.480 23054112.430 10 0 60608 58500.00000 0 4472892.964 -11020133.564 22582629.915 10 0 60608 59400.00000 0 7172508.286 -11413950.083 21673361.786 10 0 60608 60300.00000 0 9700745.393 -11978917.637 20343953.145 10 0 60608 61200.00000 0 11999203.401 -12680134.358 18620173.635 10 0 60608 62100.00000 0 14018133.429 -13473521.049 16535422.205 10 0 60608 63000.00000 0 15718266.000 -14307743.354 14130086.081 10 0 60608 63900.00000 0 17072208.635 -15126455.768 11450765.578 10 0 60608 64800.00000 0 18065356.507 -15870773.834 8549378.879 10 0 60608 65700.00000 0 18696278.876 -16481871.101 5482163.234 10 0 60608 66600.00000 0 18976565.733 -16903591.871 2308591.221 10 0 60608 67500.00000 0 18930141.384 -17084969.781 -909777.508 10 0 60608 68400.00000 0 18592074.014 -16982545.840 -4110487.097 10 0 60608 69300.00000 0 18006931.324 -16562387.591 -7231395.969 10 0 60608 70200.00000 0 17226751.485 -15801723.344 -10211883.363 10 0 60608 71100.00000 0 16308714.913 -14690121.339 -12994028.322 10 0 60608 72000.00000 0 15312615.036 -13230162.687 -15523737.862 10 0 60608 72900.00000 0 14298234.844 -11437578.105 -17751802.089 10 0 60608 73800.00000 0 13322739.975 -9340840.909 -19634855.415 10 0 60608 74700.00000 0 12438198.526 -6980231.619 -21136224.856 10 0 60608 75600.00000 0 11689332.411 -4406411.680 -22226648.676 10 0 60608 76500.00000 0 11111595.332 -1678564.406 -22884851.145 10 0 60608 77400.00000 0 10729658.721 1137820.456 -23097962.028 10 0 60608 78300.00000 0 10556369.745 3973427.230 -22861772.367 10 0 60608 79200.00000 0 10592225.615 6757757.308 -22180821.315 10 0 60608 80100.00000 0 10825386.592 9421825.113 -21068311.986 10 0 60608 81000.00000 0 11232227.376 11900795.125 -19545857.604 10 0 60608 81900.00000 0 11778403.667 14136450.413 -17643062.517 10 0 60608 82800.00000 0 12420388.889 16079389.899 -15396945.956 10 0 60608 83700.00000 0 13107415.938 17690862.941 -12851219.558 10 0 60608 84600.00000 0 13783741.537 18944164.938 -10055432.709 10 0 60608 85500.00000 0 14391136.891 19825536.104 -7064002.578 10 0 60609 0.00000 0 14871498.542 20334526.519 -3935148.444 10 0 60609 900.00000 0 15169468.377 20483813.414 -729750.000 10 0 60609 1800.00000 0 15234950.487 20298479.069 2489843.085 10 0 60609 2700.00000 0 15025418.427 19814782.095 5661031.882 10 0 60609 3600.00000 0 14507913.979 19078474.636 8722190.437 10 0 60609 4500.00000 0 13660652.647 18142738.235 11613866.644 10 0 60609 5400.00000 0 12474167.729 17065826.681 14279937.650 10 0 60609 6300.00000 0 10951944.449 15908516.177 16668697.164 10 0 60609 7200.00000 0 9110517.324 14731470.951 18733853.677 10 0 60609 8100.00000 0 6979026.526 13592635.418 20435420.729 10 0 60609 9000.00000 0 4598251.584 12544762.396 21740482.786 10 0 60609 9900.00000 0 2019162.496 11633180.622 22623822.854 10 0 60609 10800.00000 0 -698951.871 10893894.388 23068400.819 10 0 60609 11700.00000 0 -3490700.952 10352093.891 23065674.323 10 0 60609 12600.00000 0 -6287064.035 10021137.588 22615756.940 10 0 60609 13500.00000 0 -9018014.805 9902048.077 21727411.249 10 0 60609 14400.00000 0 -11615191.331 9983541.735 20417877.324 10 0 60609 15300.00000 0 -14014502.149 10242590.231 18712539.995 10 0 60609 16200.00000 0 -16158561.715 10645490.028 16644440.969 10 0 60609 17100.00000 0 -17998855.432 11149394.987 14253644.676 10 0 60609 18000.00000 0 -19497545.340 11704247.889 11586469.324 10 0 60609 18900.00000 0 -20628842.253 12255030.064 8694597.159 10 0 60609 19800.00000 0 -21379887.801 12744234.838 5634080.291 10 0 60609 20700.00000 0 -21751109.967 13114460.947 2464260.610 10 0 60609 21600.00000 0 -21756037.496 13311016.697 -753375.858 10 0 60609 22500.00000 0 -21420581.012 13284424.902 -3956388.330 10 0 60609 23400.00000 0 -20781810.984 12992722.430 -7082591.381 10 0 60609 24300.00000 0 -19886283.821 12403456.499 -10071262.281 10 0 60609 25200.00000 0 -18787986.379 11495292.397 -12864321.903 10 0 60609 26100.00000 0 -17545985.312 10259163.403 -15407465.925 10 0 60609 27000.00000 0 -16221880.228 8698912.838 -17651223.996 10 0 60609 27900.00000 0 -14877167.854 6831399.435 -19551925.989 10 0 60609 28800.00000 0 -13570628.270 4686059.728 -21072556.195 10 0 60609 29700.00000 0 -12355843.309 2303944.008 -22183478.615 10 0 60609 30600.00000 0 -11278951.643 -263735.580 -22863019.008 10 0 60609 31500.00000 0 -10376735.130 -2957485.574 -23097892.126 10 0 60609 32400.00000 0 -9675116.999 -5711763.191 -22883465.599 10 0 60609 33300.00000 0 -9188135.108 -8457467.708 -22223855.024 10 0 60609 34200.00000 0 -8917433.452 -11124588.108 -21131848.087 10 0 60609 35100.00000 0 -8852293.255 -13644897.140 -19628658.839 10 0 60609 36000.00000 0 -8970202.097 -15954579.820 -17743516.528 10 0 60609 36900.00000 0 -9237936.784 -17996686.834 -15513096.720 10 0 60609 37800.00000 0 -9613113.756 -19723310.561 -12980805.575 10 0 60609 38700.00000 0 -10046140.950 -21097392.922 -10195931.211 10 0 60609 39600.00000 0 -10482487.808 -22094089.621 -7212678.866 10 0 60609 40500.00000 0 -10865176.525 -22701634.122 -4089109.099 10 0 60609 41400.00000 0 -11137388.108 -22921665.805 -886000.301 10 0 60609 42300.00000 0 -11245071.925 -22769009.492 2334341.478 10 0 60609 43200.00000 0 -11139447.300 -22270916.809 5509301.366 10 0 60609 44100.00000 0 -10779290.441 -21465802.650 8577178.591 10 0 60609 45000.00000 0 -10132909.265 -20401531.364 11478388.920 10 0 60609 45900.00000 0 -9179722.171 -19133326.097 14156622.757 10 0 60609 46800.00000 0 -7911373.750 -17721390.431 16559936.193 10 0 60609 47700.00000 0 -6332340.190 -16228343.154 18641753.942 10 0 60609 48600.00000 0 -4459998.709 -14716574.370 20361765.213 10 0 60609 49500.00000 0 -2324157.828 -13245633.921 21686695.929 10 0 60609 50400.00000 0 33932.192 -11869761.184 22590943.327 10 0 60609 51300.00000 0 2563047.925 -10635658.896 23057061.778 10 0 60609 52200.00000 0 5203879.948 -9580603.039 23076091.496 10 0 60609 53100.00000 0 7891260.930 -8730966.568 22647724.729 10 0 60609 54000.00000 0 10556643.233 -8101217.362 21780306.922 10 0 60609 54900.00000 0 13130724.409 -7693431.021 20490673.183 10 0 60609 55800.00000 0 15546112.944 -7497337.865 18803823.282 10 0 60609 56700.00000 0 17739924.910 -7490901.311 16752441.134 10 0 60609 57600.00000 0 19656204.932 -7641402.920 14376267.494 10 0 60609 58500.00000 0 21248071.819 -7906988.345 11721337.213 10 0 60609 59400.00000 0 22479500.420 -8238609.225 8839094.969 10 0 60609 60300.00000 0 23326665.985 -8582279.503 5785405.698 10 0 60609 61200.00000 0 23778795.228 -8881551.260 2619478.182 10 0 60609 62100.00000 0 23838488.607 -9080105.812 -597277.943 10 0 60609 63000.00000 0 23521500.256 -9124350.615 -3802439.979 10 0 60609 63900.00000 0 22855984.586 -8965912.002 -6933781.828 10 0 60609 64800.00000 0 21881240.909 -8563917.849 -9930482.010 10 0 60609 65700.00000 0 20646008.528 -7886972.822 -12734306.402 10 0 60609 66600.00000 0 19206383.690 -6914741.596 -15290742.377 10 0 60609 67500.00000 0 17623445.752 -5639071.734 -17550061.992 10 0 60609 68400.00000 0 15960692.175 -4064607.240 -19468293.218 10 0 60609 69300.00000 0 14281390.068 -2208865.076 -21008079.998 10 0 60609 70200.00000 0 12645955.488 -101769.581 -22139414.157 10 0 60609 71100.00000 0 11109470.536 2215337.578 -22840224.695 10 0 60609 72000.00000 0 9719442.463 4691172.154 -23096812.739 10 0 60609 72900.00000 0 8513898.803 7266406.613 -22904123.486 10 0 60609 73800.00000 0 7519898.369 9875915.890 -22265849.520 10 0 60609 74700.00000 0 6752520.458 12451276.793 -21194363.199 10 0 60609 75600.00000 0 6214374.412 14923417.419 -19710479.039 10 0 60609 76500.00000 0 5895649.727 17225306.410 -17843050.371 10 0 60609 77400.00000 0 5774704.033 19294569.896 -15628407.825 10 0 60609 78300.00000 0 5819163.440 21075926.838 -13109650.381 10 0 60609 79200.00000 0 5987487.963 22523340.872 -10335802.743 10 0 60609 80100.00000 0 6230934.900 23601798.575 -7360855.687 10 0 60609 81000.00000 0 6495836.054 24288639.752 -4242708.453 10 0 60609 81900.00000 0 6726091.258 24574384.303 -1042034.418 10 0 60609 82800.00000 0 6865771.465 24463021.523 2178907.056 10 0 60609 83700.00000 0 6861720.046 23971750.535 5357488.570 10 0 60609 84600.00000 0 6666041.148 23130183.861 8431937.927 10 0 60609 85500.00000 0 6238368.978 21979048.782 11342542.038 10 0 60610 0.00000 0 5547821.452 20568442.484 14032807.408 10 0 60610 900.00000 0 4574554.850 18955714.606 16450555.819 10 0 60610 1800.00000 0 3310854.551 17203068.956 18548930.499 10 0 60610 2700.00000 0 1761714.509 15374983.048 20287298.540 10 0 60610 3600.00000 0 -55118.286 13535555.545 21632029.195 10 0 60610 4500.00000 0 -2109636.800 11745891.684 22557135.440 10 0 60610 5400.00000 0 -4360584.202 10061635.377 23044767.233 10 0 60610 6300.00000 0 -6756939.840 8530750.020 23085548.013 10 0 60610 7200.00000 0 -9239819.819 7191639.330 22678748.887 10 0 60610 8100.00000 0 -11744714.156 6071685.156 21832297.830 10 0 60610 9000.00000 0 -14203968.670 5186261.799 20562624.127 10 0 60610 9900.00000 0 -16549409.736 4538266.612 18894341.112 10 0 60610 10800.00000 0 -18715004.093 4118185.314 16859773.041 10 0 60610 11700.00000 0 -20639444.336 3904688.366 14498334.694 10 0 60610 12600.00000 0 -22268553.498 3865732.774 11855774.929 10 0 60610 13500.00000 0 -23557409.385 3960122.740 8983297.971 10 0 60610 14400.00000 0 -24472100.570 4139463.397 5936578.556 10 0 60610 15300.00000 0 -24991040.948 4350425.365 2774689.286 10 0 60610 16200.00000 0 -25105787.849 4537224.658 -441039.644 10 0 60610 17100.00000 0 -24821329.230 4644213.240 -3648206.597 10 0 60610 18000.00000 0 -24155827.458 4618470.555 -6784547.681 10 0 60610 18900.00000 0 -23139830.005 4412286.059 -9789145.425 10 0 60610 19800.00000 0 -21814979.598 3985427.127 -12603613.319 10 0 60610 20700.00000 0 -20232277.521 3307095.462 -15173232.868 10 0 60610 21600.00000 0 -18449972.543 2357488.132 -17448020.716 10 0 60610 22500.00000 0 -16531163.714 1128895.847 -19383704.803 10 0 60610 23400.00000 0 -14541217.362 -373709.505 -20942590.225 10 0 60610 24300.00000 0 -12545106.399 -2132624.596 -22094297.696 10 0 60610 25200.00000 0 -10604783.301 -4117905.622 -22816360.060 10 0 60610 26100.00000 0 -8776696.697 -6288381.697 -23094664.964 10 0 60610 27000.00000 0 -7109555.446 -8593149.806 -22923734.860 10 0 60610 27900.00000 0 -5642433.619 -10973490.206 -22306838.608 10 0 60610 28800.00000 0 -4403295.543 -13365123.261 -21255932.146 10 0 60610 29700.00000 0 -3408002.267 -15700714.199 -19791429.054 10 0 60610 30600.00000 0 -2659840.636 -17912521.609 -17941805.081 10 0 60610 31500.00000 0 -2149594.010 -19935079.143 -15743044.056 10 0 60610 32400.00000 0 -1856150.772 -21707798.240 -13237935.765 10 0 60610 33300.00000 0 -1747623.964 -23177382.788 -10475239.414 10 0 60610 34200.00000 0 -1782933.609 -24299954.307 -7508729.193 10 0 60610 35100.00000 0 -1913783.613 -25042798.414 -4396140.918 10 0 60610 36000.00000 0 -2086948.280 -25385659.261 -1198040.861 10 0 60610 36900.00000 0 -2246770.330 -25321527.784 2023360.350 10 0 60610 37800.00000 0 -2337763.335 -24856891.106 5205424.825 10 0 60610 38700.00000 0 -2307207.235 -24011433.334 8286310.961 10 0 60610 39600.00000 0 -2107626.034 -22817201.218 11206178.838 10 0 60610 40500.00000 0 -1699042.123 -21317270.761 13908353.526 10 0 60610 41400.00000 0 -1050911.389 -19563971.723 16340423.495 10 0 60610 42300.00000 0 -143657.108 -17616745.407 18455252.860 10 0 60610 43200.00000 0 1030262.232 -15539726.066 20211888.331 10 0 60610 44100.00000 0 2465796.241 -13399147.388 21576344.036 10 0 60610 45000.00000 0 4145280.613 -11260682.316 22522249.995 10 0 60610 45900.00000 0 6038951.010 -9186826.671 23031352.791 10 0 60610 46800.00000 0 8105971.837 -7234434.697 23093859.865 10 0 60610 47700.00000 0 10295937.627 -5452507.969 22708621.670 10 0 60610 48600.00000 0 12550785.326 -3880328.257 21883148.948 10 0 60610 49500.00000 0 14807038.932 -2546010.510 20633465.144 10 0 60610 50400.00000 0 16998294.199 -1465534.731 18983796.886 10 0 60610 51300.00000 0 19057841.208 -642295.639 16966108.259 10 0 60610 52200.00000 0 20921316.791 -67187.736 14619487.290 10 0 60610 53100.00000 0 22529277.284 280778.781 11989395.779 10 0 60610 54000.00000 0 23829585.114 433357.731 9126796.112 10 0 60610 54900.00000 0 24779510.088 431489.773 6087171.110 10 0 60610 55800.00000 0 25347457.757 323334.904 2929455.128 10 0 60610 56700.00000 0 25514252.415 161997.654 -285103.446 10 0 60610 57600.00000 0 25273920.658 3041.044 -3494126.680 10 0 60610 58500.00000 0 24633942.043 -98105.527 -6635315.700 10 0 60610 59400.00000 0 23614955.673 -88734.590 -9647659.939 10 0 60610 60300.00000 0 22249934.193 78664.841 -12472623.395 10 0 60610 61200.00000 0 20582859.137 444151.870 -15055284.496 10 0 60610 62100.00000 0 18666952.453 1038393.794 -17345407.141 10 0 60610 63000.00000 0 16562537.752 1881124.850 -19298421.732 10 0 60610 63900.00000 0 14334620.379 2980070.108 -20876296.811 10 0 60610 64800.00000 0 12050287.281 4330381.484 -22048284.091 10 0 60610 65700.00000 0 9776035.107 5914611.301 -22791522.135 10 0 60610 66600.00000 0 7575138.089 7703226.203 -23091486.713 10 0 60610 67500.00000 0 5505165.499 9655641.478 -22942278.836 10 0 60610 68400.00000 0 3615752.169 11721733.866 -22346744.557 10 0 60610 69300.00000 0 1946715.023 13843770.666 -21316423.905 10 0 60610 70200.00000 0 526593.940 15958675.282 -19871329.569 10 0 60610 71100.00000 0 -628322.541 18000534.959 -18039559.289 10 0 60610 72000.00000 0 -1514446.555 19903245.943 -15856749.174 10 0 60610 72900.00000 0 -2140797.388 21603185.298 -13365378.424 10 0 60610 73800.00000 0 -2528370.139 23041797.121 -10613938.893 10 0 60610 74700.00000 0 -2708994.467 24167984.372 -7655985.916 10 0 60610 75600.00000 0 -2723732.956 24940205.502 -4549089.235 10 0 60610 76500.00000 0 -2620888.290 25328187.553 -1353705.073 10 0 60610 77400.00000 0 -2453704.994 25314183.556 1868007.855 10 0 60610 78300.00000 0 -2277864.485 24893721.490 5053404.486 10 0 60610 79200.00000 0 -2148880.789 24075813.634 8140577.183 10 0 60610 80100.00000 0 -2119508.308 22882618.064 11069562.521 10 0 60610 81000.00000 0 -2237272.214 21348567.268 13783507.132 10 0 60610 81900.00000 0 -2542226.506 19519001.190 16229769.706 10 0 60610 82800.00000 0 -3065034.769 17448362.783 18360937.825 10 0 60610 83700.00000 0 -3825454.759 15198032.171 20135740.379 10 0 60610 84600.00000 0 -4831290.657 12833890.227 21519838.628 10 0 60610 85500.00000 0 -6077857.038 10423713.245 22486481.546 99